OPS 4682 DEB, 38405

Orbit data source: Space-Track

OPS 4682 DEB, 38405 is space debris in LEO originally from a launch on Sat, 03 Apr 1965 UTC launched from the Air Force Western Test Range (AFWTR). Debris objects in space refer to the collection of defunct objects orbiting the Earth. Examples of debris include non-operational satellites, rocket bodies, and fragments generated from explosions, collisions, or faulty payload assembly.

Loading next visibility...
Identifier
38405, 1965-027DJ
Orbit
LEO
Country
Flag of USUS
Related business
Manufacturer
Unknown
Mission
Spacecraft
Bus & Motor
Unknown
Mass
Unknown
Launch date (UTC)
1965-04-03 (61 years ago)
Launch vehicle
Unknown
Launch site
Air Force Western Test Range (AFWTR)
Object type
Payload
Rocket body
Debris
Shape & HBR
Unknown shape, 0.1 m
Radar Cross Section
Medium (>0.1 m² and <1 m²)

Expand to show TLE details & history
Last TLE update: 13 hours ago

TLE from 13 hours ago
0 OPS 4682 DEB
1 38405U 65027DJ  26249.35751304  .00001147  00000-0  37987-2 0  9990
2 38405  90.2709  24.2008 0016247 302.7968  57.1589 12.99803336675603
Epoch: 2026-09-06T08:34Z
TLE epoch observation values (Epoch: 2026-09-06T08:34:49.126Z)
Latitude
0.00001°
Longitude
-89.95768°
Altitude
1,259.021 km
Speed
7.229 km/s
True Right ascension
01h 36m 48s
True Declination
0° 00' 00"
Sunlit
Object was in full shadow at epoch
Visualization orbit readout
Latitude
Unknown
Longitude
Unknown
Altitude
Unknown
Speed
Unknown
Apparent Right ascension
Unknown
Apparent Declination
Unknown
Sunlit
N/A
Visualization observer readout
Local Sidereal Time
13:12:08
Azimuth
Unknown
Elevation
Unknown
Doppler factor
Unknown
Orbital elements
Apogee altitude
1,272.394 km
Perigee altitude
1,247.575 km
Semi-major axis
7,638.122 km
Eccentricity
0.00162
Inclination
90.2709°
RAAN
24.2008°
Arg. of periapsis
302.7968°
True anomaly
57.31549°
Mean anomaly
57.1589°
Eccentric anomaly
57.23718°
Mean motion
3.25135 °/min
Orbital period
110.72 mins
BSTAR
0.0037987
Loading maneuver chart data...
Computing Atmospheric mass density...
Loading historical data...
Loading historical data...
Loading historical data...
Loading historical data...
Loading historical data...
Loading historical data...
Loading historical data...

Documentation

Showing up to 5 results
|